[[{"header":{"parameterUnit":"m.s-1","parameterCategory":1,"la1":30.2991,"la2":30.254,"lo1":-89.0895,"lo2":-89.0444,"dy":0.0017,"dx":0.0017,"nx":28,"ny":28,"refTime":"2024-03-14T21:00:00:Z","depth":0,"parameterNumber":2,"parameterNumberName":"U-component_of_WINDS"},"data":[0,0,0,0,0,0,0,0,0,0,0,0,0,0,0,0,0,0,0,0,0,0,0,0,0,0,0,0,0,0,0,0,0,0,0,0,0,0,0,0,0,0,0,0,0,0,0,0,0,0,0,0,0,0,0,0,0,0,0.5549,0.5549,0,0.5553,0.5553,0.5553,0.5515,0.5514,0.5513,0.5512,0.5519,0.552,0.5521,0,0,0,0,0,0,0,0,0,0,0,0,0,0.5514,0.5515,0.5549,0.5549,0.5549,0.5553,0.5553,0.5553,0.5515,0.5514,0.5512,0.5511,0.5519,0.552,0.5522,0,0,0,0,0,0,0,0,0,0,0,0,0,0.5524,0.5515,0.5549,0.5531,0.5529,0.5553,0.5553,0.5553,0.5515,0.5514,0.5512,0.5511,0.5518,0.552,0.5522,0.5564,0,0,0.5527,0.5528,0,0,0,0,0,0,0,0,0.5524,0.5526,0.5533,0.5532,0.553,0.5532,0.5543,0.5557,0.5516,0.5521,0.5512,0.551,0.5525,0.5526,0.553,0.5565,0.5565,0.5527,0.5528,0.5529,0.553,0,0,0,0,0,0,0,0.5523,0.5525,0.5551,0.5534,0.5532,0.5524,0.5523,0.5545,0.5532,0.552,0.5517,0.5518,0.5524,0.5529,0.553,0.5565,0.5527,0.5529,0.553,0.5531,0.5636,0.5637,0,0,0,0,0,0,0.5524,0.5525,0.555,0.5551,0.5523,0.5525,0.5525,0.5533,0.5531,0.5529,0.5519,0.5516,0.5526,0.5528,0.553,0.5581,0.5529,0.5531,0.5532,0.5634,0.5636,0.5638,0,0,0,0,0,0,0.5524,0.5527,0.555,0.5537,0.5539,0.5528,0.5537,0.5534,0.5538,0.5531,0.5529,0.5527,0.5525,0.5528,0.5556,0.558,0.5532,0.5533,0.5632,0.5635,0.5637,0.5681,0,0,0,0,0,0,0.5523,0.5527,0.5542,0.5538,0.554,0.5575,0.5538,0.5535,0.5541,0.5537,0.5537,0.5535,0.5524,0.5554,0.5558,0.5582,0.5535,0.563,0.5633,0.5636,0.5678,0.5685,0.5692,0,0,0,0,0,0.5522,0.5555,0.5543,0.5546,0.5559,0.5576,0.5578,0.5563,0.5543,0.5559,0.5554,0.5535,0.5577,0.5557,0.5561,0.5586,0.5628,0.5632,0.5636,0.5675,0.5684,0.5691,0,0,0,0,0,0,0.5564,0.5554,0.5541,0.5573,0.5576,0.557,0.5589,0.5573,0.5583,0.5579,0.5561,0.5561,0.5593,0.5592,0.557,0.5628,0.5599,0.5604,0.5627,0.5636,0.5643,0.5643,0.5536,0,0,0,0,0,0.5577,0.5591,0.5582,0.5612,0.5613,0.5601,0.5609,0.5597,0.5599,0.5601,0.5598,0.5602,0.5616,0.5626,0.5638,0.5677,0.5677,0.5697,0.5704,0.5709,0.5714,0.5736,0.5745,0.5651,0.5651,0.5651,0,0,0.5604,0.56,0.561,0.562,0.5621,0.5637,0.5603,0.5621,0.5633,0.5604,0.563,0.5628,0.5632,0.5666,0.5681,0.5667,0.574,0.5714,0.5719,0.5721,0.5741,0.575,0.5758,0.5653,0.5653,0.5652,0,0,0.5662,0.566,0.5685,0.5686,0.5687,0.5679,0.5685,0.5681,0.5679,0.5705,0.5683,0.5698,0.5722,0.5726,0.5731,0.5791,0.5775,0.5795,0.5832,0.5854,0.5861,0.5868,0.589,0.5898,0.58,0.58,0.58,0,0.5696,0.5718,0.57,0.572,0.5726,0.5698,0.5724,0.5727,0.5732,0.5737,0.5721,0.5751,0.5751,0.5786,0.5801,0.5806,0.5813,0.5796,0.5861,0.5868,0.5873,0.5895,0.5903,0.5803,0.5802,0.5802,0.5802,0,0.5761,0.5777,0.5797,0.5802,0.5809,0.5832,0.5819,0.5829,0.5817,0.5811,0.5839,0.5838,0.585,0.5858,0.5846,0.5892,0.5883,0.5864,0.5835,0.5885,0.5905,0.5913,0.5806,0.5806,0.5805,0.5804,0,0,0.5846,0.584,0.5848,0.585,0.5849,0.5862,0.5884,0.5895,0.5905,0.591,0.5929,0.595,0.5933,0.5939,0.5927,0.5946,0.5995,0.5925,0.5925,0.5939,0.6047,0.6062,0.6071,0.5984,0.5985,0.5986,0.6047,0,0.5903,0.5939,0.5924,0.5963,0.5978,0.5952,0.5972,0.5974,0.5969,0.5983,0.5978,0.5993,0.5969,0.5972,0.5989,0.5985,0.6017,0.5981,0.6003,0.6004,0.6004,0.6081,0.6097,0.6154,0.6054,0.6056,0.6057,0,0.5974,0.5981,0.6021,0.6018,0.6024,0.6042,0.6051,0.6064,0.6066,0.6062,0.6068,0.6053,0.6076,0.6046,0.6079,0.6055,0.6063,0.6063,0.6065,0.6067,0.6034,0.6087,0.6172,0.6181,0.6068,0.6067,0.6067,0,0.6034,0.6053,0.608,0.6082,0.6079,0.6093,0.6092,0.6093,0.6101,0.6109,0.6114,0.6126,0.6133,0.6142,0.6131,0.611,0.6166,0.6135,0.6164,0.6164,0.6178,0.6177,0.6266,0.6181,0.6181,0.6181,0.6181,0,0.61,0.6126,0.6106,0.6123,0.6151,0.6134,0.6163,0.616,0.6161,0.6178,0.6157,0.6173,0.6157,0.6172,0.6163,0.6193,0.6195,0.6193,0.6191,0.6196,0.6196,0.6202,0.6198,0.6183,0.6183,0.6182,0.6182,0,0.6171,0.6159,0.6187,0.6181,0.6181,0.6202,0.6198,0.6214,0.6208,0.6229,0.6233,0.6223,0.624,0.623,0.6247,0.6241,0.628,0.6271,0.6278,0.6277,0.6307,0.6304,0.6403,0.6416,0.6322,0.6323,0.6323,0,0.6214,0.6234,0.623,0.6239,0.624,0.6255,0.6262,0.6246,0.6255,0.626,0.6276,0.6291,0.6302,0.633,0.6326,0.6339,0.6332,0.6365,0.6334,0.6338,0.6334,0.6333,0.6336,0.6372,0.6373,0.6374,0.6375,0,0.6293,0.6286,0.6297,0.6307,0.6316,0.6323,0.6329,0.6338,0.6321,0.6333,0.6349,0.6358,0.6375,0.6391,0.6402,0.6403,0.6388,0.6385,0.6392,0.6398,0.6402,0.6401,0.6297,0.6383,0.6382,0.6382,0.6381,0.6381,0.6352,0.6369,0.6369,0.6383,0.6385,0.639,0.6405,0.64,0.6413,0.6425,0.6415,0.6435,0.6439,0.6452,0.6455,0.6472,0.6458,0.6469,0.6472,0.6475,0.648,0.6398,0.6474,0.6474,0.6473,0.6473,0.6473,0,0.6431,0.643,0.6442,0.645,0.6461,0.6443,0.6449,0.646,0.6477,0.6481,0.6492,0.6512,0.6527,0.6523,0.6537,0.6551,0.6544,0.6555,0.6555,0.6556,0.6491,0.6483,0.6561,0.6561,0.6561,0.6561,0.6561,0.6561,0.6473,0.65,0.6493,0.6521,0.652,0.6539,0.6544,0.6549,0.6552,0.6575,0.6587,0.6584,0.6585,0.6599,0.6613,0.6612,0.6618,0.6633,0.6629,0.6569,0.656,0.6552,0.6545,0.6634,0.6634,0.6692,0.6693,0.6693]},{"header":{"parameterUnit":"m.s-1","parameterCategory":1,"la1":30.2991,"la2":30.254,"lo1":-89.0895,"lo2":-89.0444,"dy":0.0017,"dx":0.0017,"nx":28,"ny":28,"refTime":"2024-03-14T21:00:00:Z","depth":0,"parameterNumber":3,"parameterNumberName":"V-component_of_WINDS"},"data":[0,0,0,0,0,0,0,0,0,0,0,0,0,0,0,0,0,0,0,0,0,0,0,0,0,0,0,0,0,0,0,0,0,0,0,0,0,0,0,0,0,0,0,0,0,0,0,0,0,0,0,0,0,0,0,0,0,0,3.1995,3.1996,0,3.209,3.2091,3.2092,3.2068,3.2066,3.2064,3.2062,3.2158,3.2162,3.2166,0,0,0,0,0,0,0,0,0,0,0,0,0,3.1789,3.1793,3.1995,3.1996,3.1998,3.209,3.2091,3.2093,3.2068,3.2066,3.2063,3.2061,3.2156,3.2162,3.2167,0,0,0,0,0,0,0,0,0,0,0,0,0,3.1881,3.1795,3.1995,3.1996,3.1997,3.209,3.2091,3.2093,3.2068,3.2066,3.2063,3.206,3.2155,3.2161,3.2167,3.2264,0,0,3.2187,3.219,0,0,0,0,0,0,0,0,3.1876,3.1889,3.1995,3.1996,3.1998,3.2064,3.2054,3.215,3.2069,3.2041,3.2062,3.2059,3.2129,3.2137,3.2161,3.2268,3.2272,3.2188,3.2192,3.2194,3.2196,0,0,0,0,0,0,0,3.1869,3.1884,3.2033,3.1996,3.1998,3.1991,3.2001,3.2072,3.21,3.2044,3.2042,3.2054,3.2129,3.2155,3.2163,3.2274,3.2188,3.2193,3.2197,3.22,3.2463,3.2466,0,0,0,0,0,0,3.1862,3.1879,3.203,3.2036,3.1929,3.1997,3.2008,3.2046,3.2099,3.2104,3.2056,3.2052,3.2145,3.2156,3.2167,3.2283,3.2194,3.22,3.2204,3.246,3.2464,3.2467,0,0,0,0,0,0,3.1858,3.1876,3.2026,3.1957,3.1976,3.2004,3.2046,3.2049,3.2075,3.2108,3.2113,3.2078,3.2144,3.2158,3.224,3.2286,3.2203,3.2209,3.2456,3.2461,3.2465,3.2516,0,0,0,0,0,0,3.1852,3.1875,3.1912,3.1958,3.1979,3.2098,3.2049,3.2053,3.2087,3.2082,3.213,3.2135,3.2142,3.223,3.2246,3.2293,3.2214,3.2452,3.2458,3.2464,3.251,3.2521,3.2531,0,0,0,0,0,3.1845,3.1923,3.1915,3.1933,3.2027,3.2101,3.2113,3.2121,3.209,3.2128,3.2149,3.2134,3.2277,3.2239,3.2256,3.2306,3.2449,3.2457,3.2463,3.2505,3.2519,3.2531,0,0,0,0,0,0,3.1882,3.1929,3.192,3.2015,3.2054,3.2097,3.2145,3.2135,3.2184,3.2178,3.2184,3.2195,3.2279,3.23,3.2256,3.2401,3.2359,3.237,3.2385,3.2398,3.2408,3.2402,3.222,0,0,0,0,0,3.1901,3.1958,3.1995,3.2075,3.2096,3.2117,3.2149,3.2151,3.2192,3.2208,3.2235,3.2275,3.2329,3.2364,3.2416,3.2512,3.2522,3.2555,3.2565,3.2574,3.2584,3.2635,3.265,3.249,3.249,3.249,0,0,3.1941,3.1974,3.2009,3.2084,3.2114,3.2172,3.2131,3.2194,3.2237,3.2218,3.2297,3.2318,3.2362,3.2452,3.2492,3.2472,3.2629,3.2583,3.2589,3.2595,3.2644,3.2659,3.2672,3.2495,3.2494,3.2493,0,0,3.2045,3.2075,3.2145,3.2176,3.2223,3.2236,3.2253,3.2296,3.231,3.2389,3.2376,3.2426,3.2519,3.2551,3.2579,3.2692,3.2679,3.2708,3.2764,3.2814,3.2827,3.2838,3.2878,3.2893,3.2717,3.2717,3.2718,0,3.2089,3.2176,3.2182,3.2246,3.2279,3.2264,3.2334,3.2363,3.2424,3.2447,3.2423,3.2539,3.2567,3.2664,3.2691,3.2714,3.2733,3.2704,3.2825,3.2836,3.2846,3.2885,3.29,3.2721,3.272,3.272,3.272,0,3.2228,3.2289,3.2339,3.2399,3.2437,3.2504,3.2518,3.2556,3.2554,3.2569,3.2649,3.2683,3.2741,3.2763,3.2762,3.2859,3.2845,3.2823,3.2781,3.2865,3.2901,3.2916,3.2725,3.2724,3.2723,3.2722,0,0,3.236,3.242,3.2439,3.2465,3.2514,3.2561,3.2626,3.2682,3.2714,3.2756,3.281,3.2888,3.2868,3.29,3.2902,3.2946,3.3032,3.2918,3.2919,3.2938,3.3141,3.3158,3.3175,3.3023,3.3026,3.3028,3.3137,0,3.2468,3.2584,3.259,3.2695,3.275,3.2735,3.2792,3.2828,3.2843,3.2891,3.2908,3.2963,3.2932,3.2951,3.2993,3.3013,3.3073,3.3005,3.3074,3.3076,3.3065,3.3194,3.3213,3.3314,3.3151,3.3154,3.3155,0,3.261,3.2656,3.2767,3.2807,3.2831,3.2882,3.2933,3.298,3.3019,3.3027,3.3062,3.3057,3.3122,3.3076,3.3166,3.312,3.3148,3.3161,3.3165,3.3173,3.3122,3.3206,3.3346,3.3362,3.3178,3.3176,3.3174,0,3.2696,3.2785,3.2863,3.2886,3.2934,3.297,3.2992,3.3029,3.3062,3.3106,3.3127,3.3178,3.3207,3.3246,3.3254,3.322,3.3344,3.3299,3.3352,3.3352,3.338,3.3379,3.3528,3.3396,3.3396,3.3396,3.3396,0,3.2816,3.2885,3.2902,3.295,3.3025,3.303,3.3105,3.3123,3.3156,3.3206,3.3195,3.3243,3.325,3.3299,3.3305,3.3378,3.3391,3.3399,3.34,3.3401,3.34,3.342,3.3414,3.34,3.3399,3.3398,3.3398,0,3.2926,3.294,3.3023,3.3062,3.3073,3.3127,3.316,3.3205,3.3218,3.3282,3.3297,3.3318,3.3374,3.3386,3.3453,3.3457,3.3544,3.3538,3.3531,3.3531,3.3584,3.3579,3.3752,3.3775,3.3628,3.3629,3.363,0,3.3003,3.3055,3.3099,3.3132,3.3156,3.3209,3.3243,3.3248,3.3284,3.3331,3.337,3.3426,3.3471,3.3561,3.3582,3.3632,3.3628,3.3685,3.3635,3.3634,3.3629,3.3627,3.3632,3.3695,3.3696,3.3698,3.3699,0,3.3138,3.3142,3.3191,3.3242,3.3283,3.3323,3.3362,3.3389,3.3399,3.3439,3.3497,3.3532,3.36,3.3654,3.3705,3.3726,3.3714,3.3714,3.3729,3.3731,3.3725,3.373,3.3558,3.371,3.3709,3.3708,3.3708,3.3707,3.3234,3.3279,3.3317,3.3372,3.3401,3.3437,3.3481,3.3499,3.3548,3.3604,3.3604,3.3667,3.3702,3.3769,3.3793,3.3841,3.3823,3.3845,3.3851,3.3857,3.3862,3.3716,3.385,3.385,3.385,3.3849,3.3849,0,3.3369,3.3392,3.3442,3.3496,3.3539,3.3523,3.3565,3.3601,3.3657,3.3692,3.3736,3.3801,3.3854,3.3877,3.3929,3.3963,3.3959,3.3977,3.3975,3.398,3.3875,3.3857,3.3979,3.3979,3.3979,3.3979,3.3979,3.3979,3.3445,3.3521,3.3529,3.3618,3.364,3.3703,3.3727,3.376,3.3787,3.3862,3.3905,3.392,3.395,3.4003,3.405,3.4056,3.4075,3.4096,3.4099,3.4,3.3987,3.3975,3.3958,3.41,3.41,3.42,3.4201,3.4202]}]]